| time (UTC) | temp F | wind direction | speed MPH | gust MPH | rain 1hr in | rain 24hr in | rain mn in | humidity % | barometer mb |
| 20260507215313 | 67 | 282 | 0.0 | 1.0 | 0.00 | 0.00 | 0.00 | 47 | 1019.0 |
| 20260507214810 | 68 | 42 | 3.0 | 3.0 | 0.00 | 0.00 | 0.00 | 50 | 1019.0 |
| 20260507214308 | 67 | 141 | 1.0 | 2.0 | 0.00 | 0.00 | 0.00 | 49 | 1019.1 |
| 20260507213802 | 68 | 299 | 2.0 | 2.0 | 0.00 | 0.00 | 0.00 | 47 | 1019.0 |
| 20260507213259 | 67 | 289 | 3.0 | 3.0 | 0.00 | 0.00 | 0.00 | 51 | 1019.1 |
| 20260507212756 | 67 | 323 | 2.0 | 3.0 | 0.00 | 0.00 | 0.00 | 51 | 1019.0 |
| 20260507212252 | 67 | 299 | 1.0 | 1.0 | 0.00 | 0.00 | 0.00 | 53 | 1019.1 |
| 20260507211749 | 66 | 340 | 1.0 | 1.0 | 0.00 | 0.00 | 0.00 | 52 | 1019.3 |
| 20260507211245 | 66 | 99 | 3.0 | 5.0 | 0.00 | 0.00 | 0.00 | 52 | 1019.3 |
| 20260507210742 | 66 | 305 | 0.0 | 0.0 | 0.00 | 0.00 | 0.00 | 53 | 1019.4 |
| 20260507210239 | 66 | 317 | 0.0 | 0.0 | 0.00 | 0.00 | 0.00 | 54 | 1019.5 |
| 20260507205736 | 66 | 306 | 0.0 | 1.0 | 0.00 | 0.00 | 0.00 | 54 | 1019.5 |
| 20260507205233 | 66 | 304 | 3.0 | 3.0 | 0.00 | 0.00 | 0.00 | 54 | 1019.5 |
| 20260507204729 | 65 | 278 | 1.0 | 1.0 | 0.00 | 0.00 | 0.00 | 53 | 1019.7 |
| 20260507204227 | 65 | 312 | 3.0 | 3.0 | 0.00 | 0.00 | 0.00 | 53 | 1019.7 |
| 20260507203725 | 66 | 301 | 3.0 | 5.0 | 0.00 | 0.00 | 0.00 | 52 | 1019.8 |
| 20260507203222 | 67 | 307 | 0.0 | 0.0 | 0.00 | 0.00 | 0.00 | 53 | 1019.9 |
| 20260507202718 | 67 | 301 | 3.0 | 5.0 | 0.00 | 0.00 | 0.00 | 51 | 1020.1 |
| 20260507202214 | 66 | 341 | 0.0 | 1.0 | 0.00 | 0.00 | 0.00 | 49 | 1019.9 |
| 20260507201709 | 68 | 15 | 0.0 | 1.0 | 0.00 | 0.00 | 0.00 | 53 | 1020.1 |
| 20260507201206 | 66 | 293 | 0.0 | 0.0 | 0.00 | 0.00 | 0.00 | 52 | 1020.1 |
| 20260507200702 | 66 | 243 | 2.0 | 2.0 | 0.00 | 0.00 | 0.00 | 49 | 1020.2 |
| 20260507200158 | 66 | 288 | 2.0 | 2.0 | 0.00 | 0.00 | 0.00 | 51 | 1020.3 |
| 20260507195655 | 64 | 310 | 0.0 | 1.0 | 0.00 | 0.00 | 0.00 | 56 | 1020.2 |
| 20260507195152 | 65 | 285 | 0.0 | 0.0 | 0.00 | 0.00 | 0.00 | 53 | 1020.3 |
| 20260507194649 | 65 | 307 | 0.0 | 1.0 | 0.00 | 0.00 | 0.00 | 59 | 1020.4 |
| 20260507194144 | 66 | 310 | 2.0 | 2.0 | 0.00 | 0.00 | 0.00 | 56 | 1020.3 |
| 20260507193641 | 65 | 285 | 0.0 | 1.0 | 0.00 | 0.00 | 0.00 | 59 | 1020.6 |
| 20260507193139 | 66 | 288 | 1.0 | 1.0 | 0.00 | 0.00 | 0.00 | 56 | 1020.5 |
| 20260507192634 | 64 | 304 | 0.0 | 1.0 | 0.00 | 0.00 | 0.00 | 61 | 1020.6 |
| 20260507192132 | 65 | 357 | 1.0 | 1.0 | 0.00 | 0.00 | 0.00 | 55 | 1021.0 |
| 20260507191627 | 64 | 272 | 1.0 | 2.0 | 0.00 | 0.00 | 0.00 | 57 | 1020.9 |
| 20260507191124 | 64 | 319 | 2.0 | 3.0 | 0.00 | 0.00 | 0.00 | 56 | 1020.7 |
| 20260507190622 | 64 | 285 | 0.0 | 1.0 | 0.00 | 0.00 | 0.00 | 63 | 1021.0 |
| 20260507190121 | 65 | 263 | 1.0 | 1.0 | 0.00 | 0.00 | 0.00 | 57 | 1020.9 |
| 20260507185619 | 65 | 295 | 0.0 | 1.0 | 0.00 | 0.00 | 0.00 | 61 | 1021.0 |
| 20260507185115 | 64 | 276 | 1.0 | 1.0 | 0.00 | 0.00 | 0.00 | 59 | 1021.2 |
| 20260507184613 | 64 | 281 | 0.0 | 1.0 | 0.00 | 0.00 | 0.00 | 62 | 1021.0 |
| 20260507184111 | 63 | 271 | 0.0 | 0.0 | 0.00 | 0.00 | 0.00 | 59 | 1021.1 |
| 20260507183607 | 63 | 313 | 0.0 | 1.0 | 0.00 | 0.00 | 0.00 | 62 | 1021.3 |
| 20260507183104 | 61 | 259 | 1.0 | 2.0 | 0.00 | 0.00 | 0.00 | 63 | 1021.2 |
| 20260507182600 | 61 | 147 | 2.0 | 2.0 | 0.00 | 0.00 | 0.00 | 63 | 1021.4 |
| 20260507182055 | 63 | 312 | 0.0 | 1.0 | 0.00 | 0.00 | 0.00 | 59 | 1021.3 |
| 20260507181553 | 62 | 285 | 0.0 | 0.0 | 0.00 | 0.00 | 0.00 | 64 | 1021.5 |
| 20260507181049 | 60 | 34 | 1.0 | 2.0 | 0.00 | 0.00 | 0.00 | 64 | 1021.4 |
| 20260507180545 | 60 | 315 | 2.0 | 3.0 | 0.00 | 0.00 | 0.00 | 64 | 1021.5 |
| 20260507180043 | 61 | 316 | 1.0 | 2.0 | 0.00 | 0.00 | 0.00 | 63 | 1021.5 |
| 20260507175538 | 59 | 293 | 4.0 | 5.0 | 0.00 | 0.00 | 0.00 | 65 | 1021.6 |
| 20260507175037 | 60 | 317 | 2.0 | 2.0 | 0.00 | 0.00 | 0.00 | 66 | 1021.6 |
| 20260507174533 | 60 | 276 | 1.0 | 1.0 | 0.00 | 0.00 | 0.00 | 64 | 1021.6 |
| 20260507174031 | 61 | 314 | 1.0 | 1.0 | 0.00 | 0.00 | 0.00 | 63 | 1021.8 |
| 20260507173527 | 60 | 2 | 0.0 | 0.0 | 0.00 | 0.00 | 0.00 | 66 | 1021.8 |
| 20260507173025 | 60 | 336 | 0.0 | 1.0 | 0.00 | 0.00 | 0.00 | 68 | 1021.9 |
| 20260507172521 | 58 | 296 | 1.0 | 1.0 | 0.00 | 0.00 | 0.00 | 67 | 1021.5 |
| 20260507172018 | 59 | 280 | 1.0 | 2.0 | 0.00 | 0.00 | 0.00 | 66 | 1021.8 |
| 20260507171513 | 58 | 133 | 1.0 | 2.0 | 0.00 | 0.00 | 0.00 | 67 | 1021.9 |
| 20260507171011 | 58 | 323 | 0.0 | 0.0 | 0.00 | 0.00 | 0.00 | 68 | 1021.9 |
| 20260507170507 | 58 | 306 | 3.0 | 5.0 | 0.00 | 0.00 | 0.00 | 67 | 1021.8 |
| 20260507170004 | 59 | 298 | 1.0 | 1.0 | 0.00 | 0.00 | 0.00 | 66 | 1022.0 |
| 20260507165500 | 58 | 261 | 1.0 | 2.0 | 0.00 | 0.00 | 0.00 | 66 | 1022.2 |
| 20260507164956 | 57 | 339 | 1.0 | 1.0 | 0.00 | 0.00 | 0.00 | 70 | 1022.1 |
| 20260507164453 | 56 | 330 | 2.0 | 2.0 | 0.00 | 0.00 | 0.00 | 71 | 1022.0 |
| 20260507163949 | 56 | 85 | 1.0 | 2.0 | 0.00 | 0.00 | 0.00 | 70 | 1022.0 |
| 20260507163447 | 56 | 4 | 0.0 | 1.0 | 0.00 | 0.00 | 0.00 | 72 | 1022.0 |
| 20260507162944 | 56 | 323 | 1.0 | 1.0 | 0.00 | 0.00 | 0.00 | 71 | 1022.0 |
| 20260507162439 | 56 | 311 | 2.0 | 3.0 | 0.00 | 0.00 | 0.00 | 70 | 1022.1 |
| 20260507161937 | 56 | 276 | 1.0 | 2.0 | 0.00 | 0.00 | 0.00 | 71 | 1022.0 |
| 20260507161433 | 54 | 250 | 0.0 | 1.0 | 0.00 | 0.00 | 0.00 | 72 | 1022.0 |
| 20260507160930 | 54 | 322 | 1.0 | 1.0 | 0.00 | 0.00 | 0.00 | 73 | 1022.1 |
| 20260507160426 | 54 | 11 | 1.0 | 2.0 | 0.00 | 0.00 | 0.00 | 73 | 1022.0 |
| 20260507155921 | 54 | 178 | 3.0 | 3.0 | 0.00 | 0.00 | 0.00 | 73 | 1022.0 |
| 20260507155418 | 54 | 302 | 1.0 | 1.0 | 0.00 | 0.00 | 0.00 | 74 | 1022.1 |
| 20260507154915 | 55 | 354 | 3.0 | 3.0 | 0.00 | 0.00 | 0.00 | 72 | 1022.0 |
| 20260507154412 | 55 | 301 | 1.0 | 1.0 | 0.00 | 0.00 | 0.00 | 77 | 1022.2 |
| 20260507153909 | 54 | 305 | 0.0 | 0.0 | 0.00 | 0.00 | 0.00 | 75 | 1022.0 |
| 20260507153405 | 53 | 355 | 0.0 | 1.0 | 0.00 | 0.00 | 0.00 | 76 | 1022.2 |
| 20260507152902 | 53 | 330 | 1.0 | 1.0 | 0.00 | 0.00 | 0.00 | 75 | 1022.1 |
| 20260507152358 | 53 | 295 | 0.0 | 0.0 | 0.00 | 0.00 | 0.00 | 75 | 1022.2 |
| 20260507151854 | 53 | 265 | 1.0 | 1.0 | 0.00 | 0.00 | 0.00 | 75 | 1022.1 |
| 20260507151351 | 53 | 283 | 1.0 | 1.0 | 0.00 | 0.00 | 0.00 | 76 | 1021.9 |
| 20260507150848 | 53 | 311 | 0.0 | 0.0 | 0.00 | 0.00 | 0.00 | 76 | 1021.9 |
| 20260507150345 | 53 | 298 | 1.0 | 1.0 | 0.00 | 0.00 | 0.00 | 76 | 1022.1 |
| 20260507145840 | 52 | 126 | 1.0 | 2.0 | 0.00 | 0.00 | 0.00 | 76 | 1021.9 |
| 20260507145338 | 52 | 309 | 2.0 | 2.0 | 0.00 | 0.00 | 0.00 | 76 | 1022.0 |
| 20260507144834 | 53 | 136 | 2.0 | 2.0 | 0.00 | 0.00 | 0.00 | 76 | 1021.9 |
| 20260507144331 | 53 | 296 | 0.0 | 0.0 | 0.00 | 0.00 | 0.00 | 77 | 1022.0 |
| 20260507143828 | 52 | 279 | 1.0 | 2.0 | 0.00 | 0.00 | 0.00 | 77 | 1022.2 |
| 20260507143325 | 53 | 300 | 0.0 | 0.0 | 0.00 | 0.00 | 0.00 | 77 | 1022.1 |
| 20260507142821 | 53 | 316 | 0.0 | 1.0 | 0.00 | 0.00 | 0.00 | 78 | 1021.9 |
| 20260507142318 | 52 | 319 | 0.0 | 1.0 | 0.00 | 0.00 | 0.00 | 77 | 1021.8 |
| 20260507141814 | 52 | 315 | 0.0 | 0.0 | 0.00 | 0.00 | 0.00 | 78 | 1022.0 |
| 20260507141311 | 52 | 314 | 0.0 | 0.0 | 0.00 | 0.00 | 0.00 | 79 | 1021.6 |
| 20260507140808 | 52 | 310 | 0.0 | 0.0 | 0.00 | 0.00 | 0.00 | 78 | 1021.9 |
| 20260507140305 | 52 | 311 | 0.0 | 0.0 | 0.00 | 0.00 | 0.00 | 79 | 1021.8 |
| 20260507135802 | 52 | 325 | 1.0 | 2.0 | 0.00 | 0.00 | 0.00 | 78 | 1021.8 |
| 20260507135259 | 52 | 185 | 1.0 | 2.0 | 0.00 | 0.00 | 0.00 | 79 | 1021.9 |
| 20260507134755 | 52 | 290 | 0.0 | 1.0 | 0.00 | 0.00 | 0.00 | 79 | 1021.4 |
| 20260507134252 | 52 | 300 | 1.0 | 1.0 | 0.00 | 0.00 | 0.00 | 78 | 1021.8 |
| 20260507133748 | 52 | 315 | 1.0 | 1.0 | 0.00 | 0.00 | 0.00 | 78 | 1021.5 |
| 20260507133244 | 52 | 323 | 1.0 | 1.0 | 0.00 | 0.00 | 0.00 | 79 | 1021.6 |
| 20260507132743 | 52 | 299 | 0.0 | 0.0 | 0.00 | 0.00 | 0.00 | 79 | 1021.6 |
| 20260507132239 | 52 | 314 | 0.0 | 0.0 | 0.00 | 0.00 | 0.00 | 79 | 1021.8 |
| 20260507131736 | 52 | 329 | 0.0 | 0.0 | 0.00 | 0.00 | 0.00 | 79 | 1021.6 |
| 20260507131233 | 52 | 316 | 0.0 | 0.0 | 0.00 | 0.00 | 0.00 | 79 | 1021.4 |
| 20260507130729 | 52 | 316 | 0.0 | 0.0 | 0.00 | 0.00 | 0.00 | 79 | 1021.4 |
| 20260507130227 | 52 | 199 | 1.0 | 2.0 | 0.00 | 0.00 | 0.00 | 79 | 1021.6 |
| 20260507125726 | 52 | 193 | 2.0 | 3.0 | 0.00 | 0.00 | 0.00 | 79 | 1021.8 |
| 20260507125223 | 52 | 293 | 1.0 | 1.0 | 0.00 | 0.00 | 0.00 | 79 | 1021.6 |
| 20260507124720 | 52 | 308 | 0.0 | 1.0 | 0.00 | 0.00 | 0.00 | 79 | 1021.8 |
| 20260507124217 | 52 | 301 | 0.0 | 0.0 | 0.00 | 0.00 | 0.00 | 79 | 1021.5 |
| 20260507123715 | 52 | 220 | 1.0 | 1.0 | 0.00 | 0.00 | 0.00 | 79 | 1021.5 |
| 20260507123212 | 52 | 288 | 0.0 | 1.0 | 0.00 | 0.00 | 0.00 | 79 | 1021.5 |
| 20260507122707 | 52 | 290 | 0.0 | 1.0 | 0.00 | 0.00 | 0.00 | 80 | 1021.6 |
| 20260507122203 | 52 | 306 | 1.0 | 1.0 | 0.00 | 0.00 | 0.00 | 80 | 1021.8 |
| 20260507121659 | 52 | 302 | 0.0 | 0.0 | 0.00 | 0.00 | 0.00 | 80 | 1021.6 |
| 20260507121155 | 52 | 290 | 0.0 | 1.0 | 0.00 | 0.00 | 0.00 | 81 | 1021.8 |
| 20260507120651 | 53 | 318 | 0.0 | 0.0 | 0.00 | 0.00 | 0.00 | 80 | 1021.5 |
| 20260507120148 | 53 | 312 | 0.0 | 0.0 | 0.00 | 0.00 | 0.00 | 80 | 1021.9 |
| 20260507115645 | 53 | 304 | 0.0 | 0.0 | 0.00 | 0.00 | 0.00 | 80 | 1021.8 |
| 20260507115140 | 53 | 280 | 0.0 | 1.0 | 0.00 | 0.00 | 0.00 | 81 | 1022.0 |
| 20260507114636 | 53 | 238 | 2.0 | 2.0 | 0.00 | 0.00 | 0.00 | 80 | 1021.9 |
| 20260507114134 | 53 | 299 | 0.0 | 0.0 | 0.00 | 0.00 | 0.00 | 80 | 1021.9 |
| 20260507113631 | 53 | 296 | 0.0 | 0.0 | 0.00 | 0.00 | 0.00 | 80 | 1022.0 |
| 20260507113128 | 53 | 321 | 0.0 | 0.0 | 0.00 | 0.00 | 0.00 | 79 | 1021.9 |
| 20260507112626 | 53 | 311 | 0.0 | 0.0 | 0.00 | 0.00 | 0.00 | 80 | 1021.9 |
| 20260507112122 | 53 | 307 | 1.0 | 2.0 | 0.00 | 0.00 | 0.00 | 80 | 1022.0 |
| 20260507111620 | 53 | 294 | 0.0 | 0.0 | 0.00 | 0.00 | 0.00 | 80 | 1021.9 |
| 20260507111116 | 53 | 293 | 0.0 | 0.0 | 0.00 | 0.00 | 0.00 | 80 | 1022.0 |
| 20260507110612 | 53 | 300 | 0.0 | 0.0 | 0.00 | 0.00 | 0.00 | 80 | 1022.0 |
| 20260507110109 | 53 | 297 | 0.0 | 1.0 | 0.00 | 0.00 | 0.00 | 80 | 1022.1 |
| 20260507105606 | 53 | 312 | 0.0 | 0.0 | 0.00 | 0.00 | 0.00 | 79 | 1022.0 |
| 20260507105102 | 53 | 284 | 1.0 | 1.0 | 0.00 | 0.00 | 0.00 | 80 | 1022.1 |
| 20260507104600 | 53 | 303 | 0.0 | 0.0 | 0.00 | 0.00 | 0.00 | 79 | 1022.0 |
| 20260507104056 | 53 | 318 | 0.0 | 0.0 | 0.00 | 0.00 | 0.00 | 80 | 1022.1 |
| 20260507103552 | 53 | 208 | 1.0 | 2.0 | 0.00 | 0.00 | 0.00 | 81 | 1021.9 |
| 20260507103049 | 53 | 297 | 0.0 | 0.0 | 0.00 | 0.00 | 0.00 | 81 | 1022.1 |
| 20260507102545 | 53 | 300 | 0.0 | 1.0 | 0.00 | 0.00 | 0.00 | 81 | 1022.2 |
| 20260507102042 | 54 | 306 | 0.0 | 0.0 | 0.00 | 0.00 | 0.00 | 80 | 1022.2 |
| 20260507101537 | 54 | 296 | 0.0 | 0.0 | 0.00 | 0.00 | 0.00 | 80 | 1022.3 |
| 20260507101033 | 54 | 307 | 0.0 | 0.0 | 0.00 | 0.00 | 0.00 | 80 | 1022.0 |
| 20260507100531 | 54 | 304 | 0.0 | 0.0 | 0.00 | 0.00 | 0.00 | 79 | 1022.2 |
| 20260507100029 | 54 | 307 | 0.0 | 0.0 | 0.00 | 0.00 | 0.00 | 79 | 1022.4 |
| 20260507095527 | 54 | 308 | 0.0 | 1.0 | 0.00 | 0.00 | 0.00 | 80 | 1022.2 |
| 20260507095023 | 54 | 299 | 0.0 | 0.0 | 0.00 | 0.00 | 0.00 | 80 | 1022.3 |
| 20260507094519 | 54 | 338 | 0.0 | 1.0 | 0.00 | 0.00 | 0.00 | 79 | 1022.3 |
| 20260507094016 | 54 | 304 | 0.0 | 0.0 | 0.00 | 0.00 | 0.00 | 79 | 1022.4 |
| 20260507093514 | 54 | 292 | 0.0 | 1.0 | 0.00 | 0.00 | 0.00 | 79 | 1022.6 |
| 20260507093013 | 54 | 301 | 0.0 | 1.0 | 0.00 | 0.00 | 0.00 | 79 | 1022.5 |
| 20260507092509 | 54 | 296 | 0.0 | 0.0 | 0.00 | 0.00 | 0.00 | 79 | 1022.6 |
| 20260507092005 | 54 | 299 | 0.0 | 0.0 | 0.00 | 0.00 | 0.00 | 79 | 1022.7 |
| 20260507091502 | 54 | 298 | 0.0 | 0.0 | 0.00 | 0.00 | 0.00 | 79 | 1022.6 |
| 20260507090958 | 54 | 300 | 1.0 | 1.0 | 0.00 | 0.00 | 0.00 | 79 | 1022.7 |
| 20260507090454 | 54 | 323 | 0.0 | 0.0 | 0.00 | 0.00 | 0.00 | 79 | 1022.5 |
| 20260507085950 | 54 | 302 | 1.0 | 1.0 | 0.00 | 0.00 | 0.00 | 79 | 1022.7 |
| 20260507085448 | 54 | 292 | 0.0 | 1.0 | 0.00 | 0.00 | 0.00 | 79 | 1022.6 |
| 20260507084944 | 54 | 297 | 0.0 | 0.0 | 0.00 | 0.00 | 0.00 | 79 | 1022.7 |
| 20260507084441 | 54 | 298 | 0.0 | 0.0 | 0.00 | 0.00 | 0.00 | 79 | 1022.5 |
| 20260507083938 | 54 | 291 | 0.0 | 1.0 | 0.00 | 0.00 | 0.00 | 79 | 1022.5 |
| 20260507083435 | 54 | 302 | 0.0 | 0.0 | 0.00 | 0.00 | 0.00 | 80 | 1022.6 |
| 20260507082931 | 54 | 302 | 0.0 | 0.0 | 0.00 | 0.00 | 0.00 | 80 | 1022.6 |
| 20260507082427 | 54 | 311 | 1.0 | 1.0 | 0.00 | 0.00 | 0.00 | 81 | 1022.7 |
| 20260507081924 | 54 | 297 | 0.0 | 0.0 | 0.00 | 0.00 | 0.00 | 81 | 1022.8 |
| 20260507081420 | 54 | 297 | 0.0 | 0.0 | 0.00 | 0.00 | 0.00 | 80 | 1022.7 |
| 20260507080917 | 55 | 297 | 0.0 | 0.0 | 0.00 | 0.00 | 0.00 | 81 | 1022.6 |
| 20260507080414 | 55 | 288 | 0.0 | 1.0 | 0.00 | 0.00 | 0.00 | 80 | 1022.7 |
| 20260507075909 | 55 | 298 | 0.0 | 0.0 | 0.00 | 0.00 | 0.00 | 81 | 1022.7 |
| 20260507075405 | 55 | 305 | 0.0 | 0.0 | 0.00 | 0.00 | 0.00 | 81 | 1022.8 |
| 20260507074902 | 55 | 304 | 1.0 | 1.0 | 0.00 | 0.00 | 0.00 | 82 | 1022.5 |
| 20260507074358 | 55 | 312 | 0.0 | 0.0 | 0.00 | 0.00 | 0.00 | 81 | 1022.7 |
| 20260507073856 | 55 | 300 | 0.0 | 0.0 | 0.00 | 0.00 | 0.00 | 81 | 1022.7 |
| 20260507073352 | 55 | 301 | 0.0 | 1.0 | 0.00 | 0.00 | 0.00 | 81 | 1022.8 |
| 20260507072849 | 55 | 305 | 0.0 | 0.0 | 0.00 | 0.00 | 0.00 | 81 | 1022.8 |
| 20260507072347 | 55 | 315 | 0.0 | 0.0 | 0.00 | 0.00 | 0.00 | 81 | 1022.5 |
| 20260507071844 | 55 | 306 | 0.0 | 0.0 | 0.00 | 0.00 | 0.00 | 81 | 1022.7 |
| 20260507071342 | 55 | 298 | 0.0 | 0.0 | 0.00 | 0.00 | 0.00 | 80 | 1022.5 |
| 20260507070837 | 55 | 23 | 1.0 | 1.0 | 0.00 | 0.00 | 0.00 | 80 | 1022.6 |
| 20260507070335 | 55 | 253 | 1.0 | 2.0 | 0.00 | 0.00 | 0.00 | 80 | 1022.5 |
| 20260507065832 | 55 | 303 | 0.0 | 0.0 | 0.00 | 0.00 | 0.00 | 80 | 1022.6 |
| 20260507065329 | 55 | 1 | 1.0 | 1.0 | 0.00 | 0.00 | 0.00 | 80 | 1022.3 |
| 20260507064826 | 55 | 308 | 0.0 | 1.0 | 0.00 | 0.00 | 0.00 | 81 | 1022.4 |
| 20260507064324 | 55 | 307 | 0.0 | 0.0 | 0.00 | 0.00 | 0.00 | 81 | 1022.6 |
| 20260507063822 | 55 | 306 | 0.0 | 0.0 | 0.00 | 0.00 | 0.00 | 80 | 1022.4 |
| 20260507063318 | 55 | 303 | 0.0 | 0.0 | 0.00 | 0.00 | 0.00 | 81 | 1022.5 |
| 20260507062815 | 55 | 289 | 0.0 | 1.0 | 0.00 | 0.00 | 0.00 | 81 | 1022.3 |
| 20260507062312 | 55 | 286 | 1.0 | 1.0 | 0.00 | 0.00 | 0.00 | 81 | 1022.6 |
| 20260507061810 | 55 | 266 | 1.0 | 1.0 | 0.00 | 0.00 | 0.00 | 81 | 1022.6 |
| 20260507061308 | 55 | 284 | 0.0 | 1.0 | 0.00 | 0.00 | 0.00 | 82 | 1022.5 |
| 20260507060806 | 55 | 305 | 0.0 | 0.0 | 0.00 | 0.00 | 0.00 | 82 | 1022.6 |
| 20260507060302 | 55 | 290 | 2.0 | 2.0 | 0.00 | 0.00 | 0.00 | 82 | 1022.6 |
| 20260507055759 | 55 | 290 | 1.0 | 2.0 | 0.00 | 0.00 | 0.00 | 82 | 1022.6 |
| 20260507055254 | 55 | 319 | 1.0 | 1.0 | 0.00 | 0.00 | 0.00 | 82 | 1022.6 |
| 20260507054750 | 55 | 287 | 1.0 | 1.0 | 0.00 | 0.00 | 0.00 | 82 | 1022.4 |
| 20260507054247 | 55 | 303 | 0.0 | 1.0 | 0.00 | 0.00 | 0.00 | 82 | 1022.6 |
| 20260507053744 | 56 | 320 | 1.0 | 1.0 | 0.00 | 0.00 | 0.00 | 82 | 1022.5 |
| 20260507053242 | 56 | 345 | 0.0 | 1.0 | 0.00 | 0.00 | 0.00 | 82 | 1022.5 |
| 20260507052741 | 56 | 325 | 1.0 | 1.0 | 0.00 | 0.00 | 0.00 | 81 | 1022.6 |
| 20260507052237 | 56 | 10 | 1.0 | 1.0 | 0.00 | 0.00 | 0.00 | 81 | 1022.3 |
| 20260507051735 | 56 | 275 | 1.0 | 2.0 | 0.00 | 0.00 | 0.00 | 81 | 1022.4 |
| 20260507051231 | 56 | 317 | 2.0 | 2.0 | 0.00 | 0.00 | 0.00 | 81 | 1022.6 |
| 20260507050728 | 56 | 292 | 0.0 | 1.0 | 0.00 | 0.00 | 0.00 | 81 | 1022.3 |
| 20260507050226 | 57 | 109 | 1.0 | 1.0 | 0.00 | 0.00 | 0.00 | 80 | 1022.5 |
| 20260507045722 | 57 | 206 | 1.0 | 2.0 | 0.00 | 0.00 | 0.00 | 80 | 1022.4 |
| 20260507045218 | 57 | 310 | 1.0 | 1.0 | 0.00 | 0.00 | 0.00 | 80 | 1022.6 |
| 20260507044716 | 57 | 294 | 1.0 | 2.0 | 0.00 | 0.00 | 0.00 | 80 | 1022.6 |
| 20260507044212 | 57 | 1 | 0.0 | 1.0 | 0.00 | 0.00 | 0.00 | 80 | 1022.4 |
| 20260507043708 | 57 | 282 | 1.0 | 2.0 | 0.00 | 0.00 | 0.00 | 80 | 1022.6 |
| 20260507043205 | 57 | 325 | 2.0 | 3.0 | 0.00 | 0.00 | 0.00 | 80 | 1022.3 |
| 20260507042702 | 57 | 305 | 2.0 | 3.0 | 0.00 | 0.00 | 0.00 | 79 | 1022.2 |
| 20260507042156 | 57 | 328 | 0.0 | 1.0 | 0.00 | 0.00 | 0.00 | 79 | 1022.2 |
| 20260507041654 | 58 | 310 | 1.0 | 2.0 | 0.00 | 0.00 | 0.00 | 79 | 1022.2 |
| 20260507041150 | 58 | 308 | 1.0 | 1.0 | 0.00 | 0.00 | 0.00 | 79 | 1022.2 |
| 20260507040648 | 58 | 290 | 0.0 | 0.0 | 0.00 | 0.00 | 0.00 | 79 | 1022.3 |
| 20260507040144 | 58 | 267 | 2.0 | 2.0 | 0.00 | 0.00 | 0.00 | 79 | 1022.3 |
| 20260507035639 | 58 | 268 | 1.0 | 2.0 | 0.00 | 0.00 | 0.00 | 79 | 1021.9 |
| 20260507035136 | 58 | 300 | 1.0 | 2.0 | 0.00 | 0.00 | 0.00 | 78 | 1021.9 |
| 20260507034633 | 59 | 308 | 2.0 | 2.0 | 0.00 | 0.00 | 0.00 | 78 | 1021.8 |
| 20260507034131 | 59 | 296 | 0.0 | 0.0 | 0.00 | 0.00 | 0.00 | 78 | 1021.9 |
| 20260507033629 | 59 | 151 | 2.0 | 2.0 | 0.00 | 0.00 | 0.00 | 78 | 1021.8 |
| 20260507033126 | 59 | 296 | 1.0 | 2.0 | 0.00 | 0.00 | 0.00 | 78 | 1021.8 |
| 20260507032623 | 59 | 332 | 0.0 | 0.0 | 0.00 | 0.00 | 0.00 | 79 | 1021.6 |
| 20260507032119 | 59 | 40 | 0.0 | 1.0 | 0.00 | 0.00 | 0.00 | 79 | 1021.3 |
| 20260507031616 | 59 | 297 | 0.0 | 0.0 | 0.00 | 0.00 | 0.00 | 79 | 1021.3 |
| 20260507031112 | 60 | 325 | 1.0 | 1.0 | 0.00 | 0.00 | 0.00 | 78 | 1021.4 |
| 20260507030609 | 60 | 299 | 0.0 | 1.0 | 0.00 | 0.00 | 0.00 | 78 | 1021.3 |
| 20260507030107 | 60 | 298 | 1.0 | 1.0 | 0.00 | 0.00 | 0.00 | 79 | 1021.2 |
| 20260507025604 | 60 | 301 | 0.0 | 0.0 | 0.00 | 0.00 | 0.00 | 79 | 1021.1 |
| 20260507025101 | 60 | 290 | 0.0 | 0.0 | 0.00 | 0.00 | 0.00 | 80 | 1021.1 |
| 20260507024559 | 60 | 296 | 0.0 | 0.0 | 0.00 | 0.00 | 0.00 | 79 | 1020.9 |
| 20260507024056 | 60 | 310 | 0.0 | 0.0 | 0.00 | 0.00 | 0.00 | 78 | 1021.0 |
| 20260507023551 | 61 | 286 | 0.0 | 1.0 | 0.00 | 0.00 | 0.00 | 77 | 1021.0 |
| 20260507023049 | 61 | 299 | 0.0 | 0.0 | 0.00 | 0.00 | 0.00 | 77 | 1021.1 |
| 20260507022546 | 61 | 324 | 1.0 | 1.0 | 0.00 | 0.00 | 0.00 | 77 | 1021.1 |
| 20260507022041 | 61 | 298 | 0.0 | 0.0 | 0.00 | 0.00 | 0.00 | 76 | 1021.1 |
| 20260507021537 | 62 | 293 | 0.0 | 0.0 | 0.00 | 0.00 | 0.00 | 75 | 1021.0 |
| 20260507021034 | 63 | 290 | 1.0 | 1.0 | 0.00 | 0.00 | 0.00 | 74 | 1021.2 |
| 20260507020531 | 63 | 257 | 0.0 | 0.0 | 0.00 | 0.00 | 0.00 | 74 | 1021.4 |
| 20260507020028 | 63 | 323 | 0.0 | 1.0 | 0.00 | 0.00 | 0.00 | 74 | 1021.1 |
| 20260507015526 | 63 | 300 | 1.0 | 2.0 | 0.00 | 0.00 | 0.00 | 75 | 1020.8 |
| 20260507015023 | 63 | 290 | 0.0 | 0.0 | 0.00 | 0.00 | 0.00 | 74 | 1021.1 |
| 20260507014520 | 63 | 302 | 0.0 | 1.0 | 0.00 | 0.00 | 0.00 | 75 | 1021.0 |
| 20260507014015 | 63 | 297 | 2.0 | 3.0 | 0.00 | 0.00 | 0.00 | 74 | 1021.2 |
| 20260507013512 | 63 | 346 | 1.0 | 1.0 | 0.00 | 0.00 | 0.00 | 74 | 1020.9 |
| 20260507013010 | 64 | 292 | 1.0 | 1.0 | 0.00 | 0.00 | 0.00 | 73 | 1021.2 |
| 20260507012507 | 64 | 293 | 3.0 | 5.0 | 0.00 | 0.00 | 0.00 | 73 | 1020.9 |
| 20260507012003 | 64 | 294 | 1.0 | 2.0 | 0.00 | 0.00 | 0.00 | 72 | 1021.1 |
| 20260507011500 | 64 | 322 | 1.0 | 1.0 | 0.00 | 0.00 | 0.00 | 73 | 1021.0 |
| 20260507010956 | 65 | 302 | 1.0 | 1.0 | 0.00 | 0.00 | 0.00 | 72 | 1021.0 |
| 20260507010450 | 65 | 309 | 1.0 | 1.0 | 0.00 | 0.00 | 0.00 | 72 | 1020.9 |
| 20260507005948 | 65 | 264 | 2.0 | 3.0 | 0.00 | 0.00 | 0.00 | 72 | 1020.9 |
| 20260507005445 | 66 | 241 | 2.0 | 3.0 | 0.00 | 0.00 | 0.00 | 72 | 1020.9 |
| 20260507004941 | 66 | 280 | 1.0 | 1.0 | 0.00 | 0.00 | 0.00 | 71 | 1020.9 |
| 20260507004438 | 67 | 297 | 1.0 | 2.0 | 0.00 | 0.00 | 0.00 | 72 | 1020.8 |
| 20260507003936 | 67 | 301 | 1.0 | 1.0 | 0.00 | 0.00 | 0.00 | 72 | 1020.6 |
| 20260507003431 | 67 | 282 | 1.0 | 2.0 | 0.00 | 0.00 | 0.00 | 71 | 1020.6 |
| 20260507002926 | 68 | 293 | 1.0 | 1.0 | 0.00 | 0.00 | 0.00 | 71 | 1020.7 |
| 20260507002422 | 68 | 127 | 2.0 | 5.0 | 0.00 | 0.00 | 0.00 | 71 | 1020.6 |
| 20260507001920 | 68 | 299 | 1.0 | 2.0 | 0.00 | 0.00 | 0.00 | 70 | 1020.8 |
| 20260507001416 | 69 | 304 | 1.0 | 1.0 | 0.00 | 0.00 | 0.00 | 70 | 1020.6 |
| 20260507000914 | 68 | 289 | 0.0 | 1.0 | 0.00 | 0.00 | 0.00 | 71 | 1020.6 |
| 20260507000409 | 69 | 301 | 1.0 | 2.0 | 0.00 | 0.00 | 0.00 | 69 | 1020.5 |
| 20260506235905 | 68 | 312 | 2.0 | 2.0 | 0.00 | 0.00 | 0.00 | 68 | 1020.8 |
| 20260506235403 | 68 | 306 | 0.0 | 0.0 | 0.00 | 0.00 | 0.00 | 69 | 1020.6 |
| 20260506234858 | 69 | 298 | 0.0 | 1.0 | 0.00 | 0.00 | 0.00 | 67 | 1020.5 |
| 20260506234356 | 69 | 302 | 2.0 | 2.0 | 0.00 | 0.00 | 0.00 | 67 | 1020.5 |
| 20260506233853 | 69 | 100 | 1.0 | 2.0 | 0.00 | 0.00 | 0.00 | 66 | 1020.7 |
| 20260506233349 | 68 | 21 | 1.0 | 2.0 | 0.00 | 0.00 | 0.00 | 67 | 1020.8 |
| 20260506232846 | 68 | 304 | 0.0 | 1.0 | 0.00 | 0.00 | 0.00 | 67 | 1020.7 |
| 20260506232342 | 69 | 315 | 0.0 | 1.0 | 0.00 | 0.00 | 0.00 | 67 | 1020.5 |
| 20260506231838 | 69 | 313 | 0.0 | 0.0 | 0.00 | 0.00 | 0.00 | 69 | 1020.5 |
| 20260506231336 | 68 | 295 | 1.0 | 1.0 | 0.00 | 0.00 | 0.00 | 69 | 1020.5 |
| 20260506230833 | 68 | 307 | 2.0 | 2.0 | 0.00 | 0.00 | 0.00 | 67 | 1021.0 |
| 20260506230330 | 68 | 309 | 0.0 | 0.0 | 0.00 | 0.00 | 0.00 | 71 | 1021.0 |
| 20260506225826 | 67 | 1 | 1.0 | 1.0 | 0.00 | 0.00 | 0.00 | 68 | 1021.0 |
| 20260506225324 | 68 | 255 | 1.0 | 1.0 | 0.00 | 0.00 | 0.00 | 68 | 1021.0 |
| 20260506224821 | 68 | 302 | 1.0 | 1.0 | 0.00 | 0.00 | 0.00 | 71 | 1021.0 |
| 20260506224318 | 68 | 188 | 0.0 | 1.0 | 0.00 | 0.00 | 0.00 | 68 | 1021.0 |
| 20260506223814 | 68 | 307 | 1.0 | 2.0 | 0.00 | 0.00 | 0.00 | 68 | 1021.1 |
| 20260506223309 | 67 | 312 | 0.0 | 1.0 | 0.00 | 0.00 | 0.00 | 68 | 1021.2 |
| 20260506222807 | 67 | 321 | 0.0 | 0.0 | 0.00 | 0.00 | 0.00 | 69 | 1021.2 |
| 20260506222305 | 67 | 150 | 2.0 | 3.0 | 0.00 | 0.00 | 0.00 | 69 | 1021.2 |
| 20260506221800 | 67 | 336 | 1.0 | 1.0 | 0.00 | 0.00 | 0.00 | 70 | 1021.1 |
| 20260506221258 | 66 | 305 | 0.0 | 1.0 | 0.00 | 0.00 | 0.00 | 72 | 1021.2 |
| 20260506220755 | 67 | 301 | 2.0 | 2.0 | 0.00 | 0.00 | 0.00 | 71 | 1021.3 |
| 20260506220249 | 67 | 310 | 0.0 | 1.0 | 0.00 | 0.00 | 0.00 | 73 | 1021.5 |